Theta_e
313 313 319 325 324 325 327 329 331 334 332 327 331 326 320 321 319 322 322 322 324 321 321 321 321 321 321 322 322 322 321 321 323 320 330 339 326 322 329 336 337 338 342 342 338 336 337 338 340 341 342 342 341 342 341 342 341 341 337 332 333 334 334 335 335 335 335 336 336 338 338 338 338 338 338 338 338 338 338 338 339 338 338 338 338 338 336 336 335 332 332 332 331 329 325 320 316
312 314 321 325 325 325 330 333 328 330 333 326 326 321 319 323 321 322 322 322 323 321 323 322 322 324 322 322 320 321 322 321 322 323 334 334 325 326 331 337 339 339 342 342 338 336 337 338 339 340 341 341 340 341 341 342 341 341 336 331 333 335 335 335 335 335 335 336 337 339 339 338 338 338 338 338 338 338 338 338 338 338 337 337 337 336 335 334 333 329 327 327 325 322 318 315 312
313 318 322 323 326 326 330 334 329 327 328 323 319 320 318 319 319 321 322 322 322 321 323 321 322 324 322 322 321 322 324 322 321 330 335 330 330 330 331 339 341 340 341 341 338 335 336 338 338 339 340 339 340 341 341 341 341 339 334 332 334 336 336 335 335 336 336 337 338 338 338 338 338 338 338 337 337 336 336 336 337 336 335 335 335 334 333 332 330 326 321 319 316 314 312 310 309
318 323 324 324 331 333 332 332 332 325 323 323 317 319 319 318 319 320 322 323 324 323 321 321 322 322 321 322 322 321 323 322 319 331 336 328 332 328 329 340 341 341 340 340 337 335 336 337 338 338 339 339 339 341 341 341 341 339 334 334 335 336 337 335 335 336 336 338 339 337 338 338 338 338 337 335 334 334 334 335 334 334 333 332 333 332 331 331 329 326 319 314 311 309 308 307 306
323 325 324 324 330 333 332 328 331 323 321 325 317 317 319 318 321 321 321 322 324 324 322 322 322 321 321 322 323 321 322 323 320 328 333 327 329 326 327 337 341 341 341 340 337 335 336 337 338 338 339 340 340 340 341 341 340 339 335 335 336 336 337 337 335 336 337 338 338 338 338 338 338 338 336 334 332 333 332 332 332 331 332 331 331 330 330 329 329 326 318 311 307 305 304 303 302
323 324 324 325 325 326 328 325 328 324 324 327 318 319 318 318 321 320 322 321 323 323 322 321 321 322 321 323 322 321 323 323 323 327 330 326 325 324 325 334 340 341 341 342 338 335 336 337 337 338 339 340 341 340 340 340 340 338 335 336 337 336 337 337 335 334 336 337 338 338 338 338 338 337 336 334 332 332 332 331 331 330 331 330 330 329 329 328 328 325 317 309 304 302 301 300 300
322 325 328 329 327 326 326 322 326 326 327 326 319 320 318 320 322 321 323 320 322 322 321 321 321 321 322 323 321 322 322 322 323 325 326 323 322 322 324 332 339 340 341 342 340 336 335 337 337 338 339 340 341 340 340 339 339 336 335 336 337 337 337 336 335 334 335 337 338 338 339 339 338 337 335 334 332 332 331 331 331 330 330 329 329 328 328 327 327 325 316 306 301 300 300 300 300
322 325 330 334 331 329 327 325 327 326 326 324 320 321 319 321 323 322 322 320 321 322 322 322 322 322 323 322 322 324 321 322 323 322 321 320 320 320 323 331 338 339 340 342 341 337 335 336 337 338 339 340 340 340 340 339 338 336 334 336 336 337 336 336 335 334 335 337 338 338 339 339 338 336 335 334 333 332 331 331 331 330 329 329 328 327 327 327 326 324 315 304 300 299 299 299 300
322 323 331 334 330 329 329 329 330 328 325 320 319 321 321 321 323 321 322 321 321 323 323 324 322 322 323 322 324 324 323 323 322 321 319 318 319 319 321 328 335 338 340 342 342 340 337 336 336 338 339 340 340 340 340 338 338 336 334 334 336 336 336 335 334 334 336 336 338 338 339 339 338 336 335 334 333 332 331 330 330 330 329 327 326 326 326 325 326 323 314 303 299 299 299 299 299
326 322 328 335 329 327 328 329 329 329 321 317 319 320 322 321 322 321 321 322 321 322 323 322 322 322 322 322 324 324 323 323 321 321 319 317 318 317 320 322 331 338 339 341 342 341 339 337 336 337 339 339 340 340 340 339 339 337 334 333 335 336 335 334 334 335 336 336 337 338 338 338 338 336 335 334 333 332 331 330 330 329 328 327 325 325 326 325 324 321 311 301 299 299 299 299 299
334 328 329 333 328 324 326 326 325 327 321 318 320 319 321 322 321 322 321 321 321 321 321 319 320 322 322 322 325 324 322 322 319 319 318 318 317 316 319 321 327 334 337 338 341 342 341 339 337 336 337 338 339 340 341 340 339 338 335 334 334 334 334 333 334 335 336 336 336 337 338 338 337 336 335 334 333 332 331 330 329 328 327 327 325 324 325 324 323 320 311 300 299 299 299 299 299
332 333 331 327 325 325 325 323 323 329 326 321 321 319 320 322 321 321 320 319 319 320 321 320 319 321 321 322 325 322 320 321 319 318 319 319 317 316 319 323 327 331 334 335 338 341 341 341 340 338 337 337 339 340 341 340 340 338 336 335 335 335 334 333 333 334 334 335 336 338 338 338 337 336 335 334 333 332 331 330 328 327 326 326 325 324 324 322 321 320 311 299 299 298 299 299 299
327 331 329 326 328 325 322 324 327 331 329 321 319 321 319 320 320 319 319 319 319 320 321 320 319 319 320 322 322 321 320 321 322 320 319 318 318 320 322 325 328 330 333 334 337 340 341 342 341 340 338 337 338 340 341 340 340 339 337 336 336 336 336 334 333 333 333 334 336 338 338 338 337 336 335 334 333 332 331 330 328 325 324 325 324 323 323 321 320 319 310 299 299 298 298 299 298
326 329 325 327 331 325 323 325 327 325 323 322 319 321 319 318 320 319 319 317 319 321 320 319 318 317 319 321 322 326 323 321 323 320 318 319 319 323 326 325 328 331 333 335 337 338 340 341 341 340 339 337 337 339 340 340 340 339 338 337 337 337 337 336 334 334 333 332 335 337 338 337 336 336 334 334 333 332 331 329 327 324 323 323 323 323 323 321 321 319 309 299 299 298 298 298 298
324 331 328 327 330 328 326 325 326 323 321 325 319 319 319 317 319 319 319 317 319 320 318 317 316 317 318 318 323 330 324 320 323 319 318 321 321 324 329 328 327 331 334 336 336 338 339 340 340 340 339 338 337 338 339 340 340 339 338 337 338 337 337 337 335 334 333 333 335 337 337 337 336 335 334 333 333 331 330 328 326 325 321 320 321 322 322 321 321 318 308 299 298 298 298 298 298
326 335 330 326 329 327 326 324 326 323 321 323 318 319 319 317 318 318 318 317 319 319 317 317 316 318 319 317 320 323 321 320 321 318 319 323 323 324 330 331 328 330 334 336 337 337 338 339 339 339 339 338 338 338 338 339 339 339 339 338 338 338 338 337 336 334 333 335 336 337 337 336 335 334 334 333 332 330 329 327 326 325 320 316 319 321 321 321 320 317 307 299 298 298 298 297 298
332 338 328 325 329 328 329 324 319 320 319 320 317 318 317 317 318 317 317 317 319 319 318 319 317 316 318 318 317 317 320 320 318 317 319 322 325 325 329 332 330 329 331 335 337 337 338 338 338 338 338 338 338 338 337 338 339 339 339 339 339 338 338 337 336 335 334 335 336 336 336 336 335 334 333 332 331 330 328 327 326 326 319 311 316 321 321 322 320 316 308 299 298 298 298 298 297
333 335 326 325 329 327 328 322 316 318 318 318 317 317 317 316 316 317 316 317 318 318 318 317 316 316 316 316 315 317 320 319 317 317 319 321 325 327 328 331 331 329 329 332 335 337 338 337 337 336 337 337 337 337 337 337 338 339 339 339 339 338 338 337 336 335 334 334 335 336 336 335 335 334 333 332 331 329 328 327 326 326 319 307 313 321 321 322 320 315 309 299 297 298 297 298 297
330 330 325 330 333 328 324 319 316 316 315 318 319 317 317 317 315 316 316 317 318 317 317 316 316 317 316 314 313 317 319 318 318 318 320 321 322 325 326 328 329 328 327 328 330 333 336 337 337 336 335 335 335 335 335 337 338 339 339 339 338 338 338 338 337 336 335 335 335 336 336 335 335 334 333 332 330 329 327 327 326 326 321 307 310 320 321 321 318 315 312 302 297 298 297 298 297
328 326 324 332 332 324 320 318 317 316 316 318 319 319 318 317 316 316 315 317 318 318 317 316 316 317 317 316 312 317 319 318 320 320 320 321 321 322 323 324 326 325 323 322 323 327 331 334 335 335 335 335 334 333 334 336 338 338 338 339 338 338 338 337 337 336 336 335 335 335 336 335 334 334 333 332 330 329 327 327 326 325 323 312 308 318 320 319 316 316 314 302 297 298 297 297 297
325 324 326 332 326 319 320 319 318 318 318 318 319 320 318 317 315 316 316 318 317 317 316 316 317 316 317 317 314 316 317 317 318 320 319 318 320 320 321 321 321 321 320 320 322 323 326 328 330 333 335 336 335 334 334 336 338 338 338 338 338 338 337 337 336 336 336 335 336 335 335 335 334 333 332 331 329 328 327 326 325 324 324 317 308 313 319 316 314 315 312 300 297 297 296 297 296
321 322 324 327 322 319 320 318 317 318 318 318 320 319 318 317 316 315 316 317 316 315 315 316 316 316 316 315 314 315 316 317 316 316 318 317 318 319 320 320 320 321 321 322 323 323 323 324 326 328 332 335 336 335 334 335 337 337 337 338 338 338 337 337 336 336 336 335 335 335 335 334 334 333 332 330 329 328 327 326 325 324 323 320 309 308 316 314 311 311 306 299 298 297 296 297 296
321 322 321 321 320 318 317 317 317 317 317 317 319 318 318 317 317 316 315 316 315 314 315 315 315 314 314 314 314 316 319 321 316 313 316 317 317 318 318 319 320 320 322 323 323 323 324 324 324 325 328 332 335 336 334 335 336 337 337 337 338 338 337 337 336 336 335 335 335 335 335 334 333 332 331 329 329 327 326 325 325 324 323 320 310 306 312 312 308 306 303 300 298 296 296 296 297
319 321 321 320 319 318 318 317 316 317 317 317 317 317 317 318 318 316 315 316 314 314 314 314 313 312 312 313 316 318 318 317 313 313 316 317 317 318 318 318 318 318 320 321 322 324 325 324 325 325 325 328 333 336 335 335 336 337 337 337 337 337 337 337 336 336 336 335 335 335 334 334 333 331 330 329 328 327 326 325 324 323 322 317 308 304 309 310 307 305 302 299 298 297 296 296 298
317 317 319 318 318 318 317 316 316 316 315 315 316 316 317 317 317 316 316 316 315 314 314 314 313 312 313 314 315 317 318 315 311 312 314 315 317 317 317 317 317 318 318 319 321 324 325 325 326 325 325 324 329 335 335 335 336 337 338 337 337 337 336 336 335 335 335 335 335 334 334 333 332 331 329 328 327 326 326 325 324 323 321 316 308 305 308 308 306 304 302 299 298 297 295 296 297
317 316 316 316 316 316 315 315 315 315 314 313 314 314 315 316 316 316 317 316 316 315 314 315 314 314 314 314 315 315 317 317 312 312 313 314 316 316 317 317 317 317 317 318 320 322 324 326 326 326 325 324 326 332 335 335 336 337 337 337 337 336 336 335 335 335 335 335 335 334 334 333 332 331 329 328 327 326 325 324 323 322 321 316 309 306 307 307 305 303 301 299 298 297 296 297 297
316 315 315 315 315 314 314 314 314 313 313 313 313 314 314 315 315 316 317 316 315 314 314 314 314 316 316 315 316 315 315 314 312 312 313 313 314 315 316 316 316 317 317 318 318 320 323 326 327 326 326 325 325 330 334 334 335 336 336 336 336 336 335 335 335 335 335 335 334 334 333 332 331 330 329 328 327 326 325 324 323 321 320 317 311 308 307 307 305 303 302 300 298 297 296 297 297
315 315 315 315 315 315 314 314 313 312 313 314 313 313 313 314 316 316 315 315 315 314 314 314 314 315 316 317 316 315 314 312 311 312 312 312 313 315 315 315 316 316 317 318 317 319 322 325 327 327 327 327 326 328 331 333 334 334 335 335 335 335 335 335 335 335 334 333 333 332 332 331 330 330 329 328 327 325 324 323 322 321 319 317 313 309 308 307 306 305 304 303 301 298 296 297 297
314 314 314 315 314 314 314 313 313 312 313 315 313 313 315 314 315 316 315 315 314 314 315 315 315 314 315 317 316 316 314 311 310 311 312 313 313 314 315 316 316 316 316 317 317 318 320 323 325 326 327 327 327 327 329 332 333 333 333 334 334 334 334 334 334 334 333 333 332 331 330 329 329 329 329 328 326 325 324 323 322 321 319 316 313 311 310 309 309 308 307 307 304 299 296 296 296
315 314 313 315 314 316 315 314 314 313 314 315 313 315 320 319 315 315 315 314 314 316 317 316 315 315 315 316 316 318 315 311 310 310 311 312 312 313 314 315 316 317 317 317 317 317 318 321 324 326 327 328 328 327 328 330 332 332 332 332 333 333 333 333 332 332 332 332 331 331 329 328 328 329 328 327 326 325 324 323 322 320 318 316 314 312 312 311 310 310 310 309 305 300 297 296 296
314 313 316 316 315 320 320 315 316 315 314 314 313 316 321 321 318 317 316 316 316 317 318 316 315 314 314 316 317 318 314 311 311 311 311 311 311 312 311 312 314 315 317 317 318 318 318 320 323 325 327 328 328 328 328 328 330 331 331 332 331 332 332 332 331 330 331 330 330 330 329 328 328 328 328 327 325 324 324 322 322 320 317 316 314 313 313 312 311 311 311 309 304 300 298 297 296
315 314 321 321 317 320 320 316 316 316 314 313 313 317 319 318 317 318 316 316 316 317 316 315 314 313 313 316 316 314 312 310 311 311 311 310 310 310 310 310 311 312 314 316 318 318 318 319 321 324 326 327 328 328 329 329 330 330 331 331 330 331 331 331 330 330 330 330 329 329 328 327 327 327 326 326 325 324 323 322 321 320 317 316 315 314 314 313 312 311 310 308 303 300 298 297 297
320 316 320 322 319 318 319 319 318 316 315 313 313 317 318 318 319 319 317 316 316 315 314 313 313 312 314 316 314 312 311 310 310 309 309 308 308 308 309 309 309 310 311 313 316 317 318 318 319 321 323 325 327 328 328 329 329 329 330 330 329 329 329 330 330 330 330 329 329 328 327 326 326 326 325 325 325 324 323 322 321 319 317 315 315 315 314 314 312 310 309 306 302 300 298 297 297
325 321 319 321 320 318 319 322 319 315 316 315 314 314 315 317 319 318 316 315 315 313 312 314 314 313 314 315 313 311 310 309 308 307 307 306 306 306 307 307 308 309 309 310 312 315 316 317 319 320 321 322 324 325 327 328 328 328 328 329 329 329 328 328 328 328 329 328 329 328 327 327 326 325 325 324 324 324 323 322 321 319 317 315 315 315 314 313 312 310 307 304 301 299 298 298 297
324 323 321 321 321 319 319 320 319 316 316 316 316 315 315 315 315 315 315 313 313 313 313 314 315 314 313 313 311 310 308 308 307 306 306 305 305 305 305 306 307 307 308 309 310 312 314 317 317 317 317 318 320 322 324 325 325 325 326 326 327 327 327 327 327 327 327 327 327 327 327 327 326 325 325 324 324 323 323 321 320 319 317 315 315 314 314 312 311 308 306 303 301 299 298 298 298
320 320 319 320 320 320 319 318 318 318 317 317 318 318 317 316 316 316 316 314 314 314 315 314 314 314 313 312 310 309 308 307 306 305 305 304 304 304 304 305 305 306 306 307 308 309 311 314 315 314 313 313 316 318 320 322 323 323 324 324 324 324 324 324 325 325 325 325 325 325 326 325 325 325 324 324 324 323 323 322 320 319 317 315 314 313 312 311 310 308 305 303 301 299 298 298 297
316 317 318 319 319 319 318 317 319 318 317 319 320 319 319 318 318 317 315 315 315 315 315 314 314 314 313 311 309 308 308 307 305 304 303 303 303 303 303 304 304 304 305 305 306 307 308 310 312 312 312 313 314 316 318 319 320 321 322 322 323 323 323 323 323 323 323 323 323 323 323 323 323 323 323 323 323 323 322 322 320 318 316 314 314 313 311 310 309 307 305 302 300 299 298 297 297
315 317 319 320 321 320 318 317 317 316 317 321 322 319 318 318 316 316 315 315 315 315 314 314 315 314 312 310 309 308 307 305 304 303 302 302 302 302 302 302 303 303 303 303 304 305 306 307 308 309 310 311 313 315 317 318 319 319 320 320 321 321 321 321 321 321 322 322 322 321 321 321 321 321 321 321 321 321 321 321 319 318 316 314 313 311 310 309 308 306 304 301 300 299 298 297 296
317 319 320 321 322 321 321 320 319 316 317 323 324 318 317 318 317 315 315 315 315 314 315 316 315 312 310 309 308 307 306 305 304 303 302 301 301 301 301 301 301 301 301 302 302 303 304 305 306 307 308 309 309 310 312 314 316 317 317 317 318 319 319 319 319 319 319 320 320 320 319 319 319 319 319 319 319 319 319 319 319 317 316 313 311 310 309 308 307 305 303 301 300 298 297 297 296
320 321 320 322 321 320 322 323 321 318 317 320 321 318 319 318 316 316 316 315 314 313 313 313 312 310 309 308 307 306 305 304 303 302 302 301 301 301 301 301 301 301 300 301 301 302 302 303 304 306 307 307 307 307 308 309 311 313 313 313 314 315 315 315 316 316 316 317 317 317 317 317 317 317 317 317 317 317 317 317 317 316 315 313 311 309 308 307 306 304 303 301 299 297 296 296 296
325 326 322 322 321 320 321 322 321 320 322 324 318 321 329 325 319 322 320 315 312 312 311 310 309 308 307 306 305 305 304 303 303 302 301 300 300 300 300 300 300 300 300 300 300 300 300 301 303 304 305 306 306 306 307 307 308 308 309 309 309 310 310 310 310 311 311 311 312 312 312 313 314 314 315 315 315 315 315 315 315 315 314 312 310 308 307 306 305 304 303 301 299 298 297 296 296
327 329 324 323 323 322 323 325 324 323 327 325 317 323 333 330 323 324 320 315 312 311 310 309 308 307 306 305 304 304 303 302 302 301 300 299 299 299 299 300 300 300 300 300 299 299 300 300 301 302 303 304 305 305 306 306 306 306 306 306 306 306 306 306 306 306 306 307 308 308 309 309 310 310 311 311 312 312 312 313 313 313 313 312 310 308 306 305 304 304 302 301 299 298 297 296 296
323 326 326 326 324 322 324 324 323 326 326 321 316 321 326 322 319 319 316 314 312 311 309 308 306 305 305 304 303 303 302 302 301 300 299 298 298 298 298 298 299 299 299 299 299 299 299 300 300 300 301 302 303 304 304 305 305 305 305 304 304 304 304 304 305 305 305 305 305 306 307 308 308 308 308 308 308 309 309 310 310 311 311 311 310 308 306 305 304 303 302 301 299 298 297 296 296
325 326 325 326 321 319 323 319 320 325 323 321 319 317 319 320 319 317 315 314 312 310 309 307 306 304 304 303 302 302 301 301 300 300 299 298 297 297 297 297 297 298 299 299 299 299 299 299 299 300 300 300 301 302 303 303 303 303 303 303 303 303 303 303 304 304 304 304 304 305 305 306 306 305 305 305 305 305 306 307 307 308 309 309 309 308 306 305 303 303 302 301 299 298 297 296 296
328 325 318 320 317 317 320 316 319 322 318 323 325 317 318 325 326 318 314 315 313 311 309 307 305 304 303 302 301 301 301 300 299 299 298 297 296 296 296 296 296 297 297 297 298 298 298 299 299 299 300 300 300 300 301 301 301 301 302 302 301 301 302 302 303 303 303 303 303 303 303 304 304 304 304 304 303 303 303 304 304 305 306 306 307 307 307 305 303 302 301 300 299 298 298 297 296
324 322 319 323 321 320 319 316 319 319 317 325 327 319 319 327 334 324 315 317 315 311 308 305 304 303 302 302 301 300 300 299 299 298 296 296 296 296 295 295 295 295 296 296 296 297 297 298 298 298 298 298 298 298 299 299 299 300 300 299 300 300 300 301 301 301 301 302 302 302 302 302 303 303 303 303 303 302 302 302 302 302 303 303 304 305 305 305 304 302 301 300 299 298 298 297 296
319 322 326 327 326 326 322 321 324 320 321 329 326 321 318 323 335 326 316 318 314 310 307 304 304 303 302 301 300 300 299 298 298 297 296 295 295 295 295 295 295 295 295 295 295 295 296 296 297 297 297 297 297 297 297 298 298 298 298 298 298 298 299 299 299 299 299 299 300 300 300 301 301 301 301 302 302 302 301 301 301 301 301 301 302 302 303 303 304 303 302 301 299 298 298 297 297
318 324 326 324 327 330 325 324 327 322 327 335 327 322 318 321 331 323 313 315 311 309 307 304 303 303 302 301 300 299 299 298 298 297 296 295 295 294 294 294 294 294 294 294 295 295 295 296 296 296 296 296 297 297 297 297 297 297 297 297 297 297 297 297 297 297 297 297 298 298 299 299 299 300 300 300 300 300 300 300 300 300 300 300 300 300 300 301 301 302 302 301 300 299 298 297 297
320 324 323 322 326 327 324 325 326 324 329 332 324 321 319 322 326 318 313 313 310 308 306 303 303 302 301 301 300 300 299 298 297 297 296 295 294 294 294 294 294 294 294 294 294 294 294 294 295 295 295 295 295 296 296 296 296 296 296 296 296 296 296 296 296 296 296 297 297 297 297 297 298 298 298 298 298 298 298 298 299 299 299 300 299 299 299 299 299 300 300 301 301 300 299 298 297
318 321 323 325 325 323 324 325 323 321 326 327 320 317 321 325 321 313 310 308 306 306 304 303 302 301 301 301 300 300 299 298 297 297 297 295 293 294 293 293 293 293 293 293 294 294 294 294 294 294 294 294 294 294 294 295 295 295 296 296 296 296 296 295 295 295 295 296 296 296 296 296 296 296 296 297 297 297 297 297 298 298 299 299 299 299 298 298 298 298 299 299 299 300 300 299 298
316 320 324 326 328 327 324 323 322 322 327 328 320 318 326 328 317 308 306 304 303 304 303 303 302 301 301 301 301 301 300 300 299 298 297 294 293 294 293 293 293 293 293 293 293 293 293 293 293 293 293 294 293 293 292 293 293 293 294 294 294 294 294 294 294 294 294 295 295 295 295 295 295 295 295 296 296 296 296 296 297 297 298 298 298 298 298 297 297 297 297 298 298 298 298 299 298
316 318 322 324 327 328 323 323 324 322 323 324 320 323 325 318 309 305 305 304 303 303 302 302 302 301 302 301 301 301 301 300 299 299 297 294 293 294 293 293 293 293 293 292 292 292 293 293 293 293 293 293 293 293 292 291 291 291 292 292 292 292 292 291 291 292 292 292 292 292 293 293 294 294 295 295 295 295 295 295 296 296 296 297 297 297 297 296 296 296 296 297 297 297 297 298 298
320 318 324 324 322 320 321 325 324 319 320 320 318 322 319 312 309 306 304 304 303 303 302 302 302 303 303 302 302 301 301 300 299 298 296 294 293 294 293 293 293 293 293 292 292 292 292 292 292 292 292 292 292 292 292 291 290 290 290 290 290 290 290 290 289 290 290 290 290 290 291 291 291 292 292 293 294 294 294 295 295 295 295 295 295 295 295 295 295 295 295 296 296 296 296 297 297
320 320 325 322 318 318 320 323 323 320 321 320 317 319 317 317 316 308 304 306 304 303 303 303 303 303 303 303 302 302 301 300 299 298 295 294 294 294 293 293 293 293 293 292 291 291 291 291 291 290 291 291 291 291 291 291 290 290 289 289 289 289 289 288 288 288 288 288 289 289 289 289 289 290 290 291 291 292 292 293 294 294 294 294 294 294 294 294 294 294 294 295 295 295 295 296 296
318 320 321 319 320 323 322 321 322 321 320 320 321 320 317 319 317 309 306 306 304 303 304 303 303 303 303 303 302 301 300 300 299 298 296 294 294 294 293 293 293 292 292 292 291 290 290 289 289 289 289 289 289 290 290 289 289 289 289 288 288 288 288 287 287 286 286 286 286 287 287 287 287 288 288 289 289 290 290 291 292 292 293 293 293 293 293 293 293 293 293 294 294 294 294 295 295
316 319 318 318 320 320 320 320 322 322 320 319 321 320 319 318 314 310 308 305 304 304 304 304 304 303 303 303 302 301 301 301 300 299 297 295 293 293 293 292 292 291 291 291 291 290 289 289 289 288 288 288 288 288 288 288 288 287 287 287 287 286 286 286 286 285 285 285 285 285 285 285 285 286 286 286 287 287 288 288 289 290 291 292 292 293 292 292 292 292 292 293 293 293 294 294 294
318 318 316 317 317 317 318 318 319 321 320 319 319 320 321 317 310 308 307 305 305 306 305 306 306 305 305 305 303 302 302 301 300 299 297 294 293 293 292 292 291 291 291 291 290 290 289 289 289 289 288 288 288 288 288 288 288 287 287 286 286 286 285 285 285 285 285 284 284 284 284 285 285 285 285 285 285 285 285 286 287 287 288 289 290 291 292 292 291 291 291 292 292 292 293 293 293
323 320 319 319 318 317 317 317 318 319 318 318 319 319 319 314 308 308 307 306 307 307 309 309 307 307 306 305 303 302 302 300 300 299 295 292 292 292 292 292 292 292 291 291 291 290 290 289 289 289 289 289 288 288 288 288 288 288 288 288 287 286 286 285 285 285 285 284 284 284 284 284 284 284 284 284 284 284 285 285 285 285 286 286 287 288 289 290 291 291 291 291 291 291 291 292 292
Wind_Speed
9 9 7 8 10 12 9 2 3 3 3 1 4 0 3 2 1 3 4 3 2 1 1 1 1 1 1 2 5 4 4 5 4 3 3 4 5 13 18 13 13 18 19 21 26 29 29 27 26 25 24 23 23 22 21 20 18 17 16 17 18 17 16 15 14 14 13 12 11 10 10 11 11 11 12 11 11 10 10 10 9 8 8 7 6 4 3 3 3 2 1 2 4 5 6 6 5
9 8 7 8 8 5 3 2 4 3 4 3 4 1 2 3 4 3 4 3 2 4 3 3 1 1 1 1 3 1 3 6 5 3 2 4 9 16 17 11 15 18 19 20 25 30 30 28 26 26 25 24 24 23 22 20 19 17 17 18 18 17 16 15 15 14 13 12 11 11 11 11 12 12 12 11 11 10 9 9 8 7 7 6 5 3 2 2 1 1 3 5 6 6 6 6 5
8 7 9 9 5 1 1 3 3 1 4 2 4 3 2 5 3 4 5 5 6 5 2 2 0 0 2 3 1 2 3 3 3 3 1 7 8 12 17 14 15 16 18 20 25 30 30 29 27 26 25 24 25 23 22 21 19 18 18 19 18 17 16 15 15 14 14 13 11 11 12 12 13 12 11 11 10 8 8 9 8 7 6 6 5 4 2 1 1 3 5 6 7 6 6 5 4
8 7 9 7 4 3 3 3 2 3 1 1 1 5 2 4 3 4 5 6 7 4 2 1 1 1 2 1 2 2 3 2 2 4 3 8 6 9 18 17 16 16 16 18 24 30 30 30 28 27 26 25 25 24 23 21 20 19 19 19 18 18 16 15 15 15 14 13 12 12 12 13 14 12 11 11 9 7 7 8 8 6 5 4 3 2 1 1 2 3 6 6 6 5 5 4 3
8 8 7 3 3 2 2 2 1 3 2 3 2 4 0 4 3 1 2 3 5 4 3 2 1 2 0 2 2 1 3 1 1 6 7 10 7 8 17 19 18 16 16 16 22 29 30 30 28 27 26 25 24 24 23 22 20 19 20 20 19 18 16 15 15 15 14 13 13 13 13 14 14 13 12 11 9 7 7 7 7 6 5 3 3 1 2 2 2 3 5 5 5 4 4 4 3
9 9 5 1 1 1 3 1 1 1 5 4 3 4 2 4 3 2 5 1 2 2 4 2 0 1 1 3 2 3 3 2 3 6 8 10 8 10 16 20 20 18 17 16 19 27 30 30 29 28 26 24 24 24 24 23 21 20 20 20 19 18 17 16 15 15 15 13 13 13 14 14 14 13 13 11 10 8 6 6 5 5 4 3 3 2 2 2 3 3 5 5 5 4 3 3 2
8 7 3 2 2 1 4 1 3 3 5 5 5 3 2 3 4 4 6 2 2 2 2 0 1 2 2 3 1 2 0 3 4 5 6 8 8 10 16 20 21 19 17 16 18 25 29 30 29 28 27 25 25 25 25 23 21 20 20 20 19 18 17 16 16 15 15 14 13 14 14 15 15 14 13 12 11 8 7 6 5 4 4 3 3 3 3 3 3 3 5 5 4 2 1 1 0
5 2 1 4 3 2 3 2 4 3 4 4 5 3 4 3 4 4 3 1 1 1 1 1 3 3 4 3 1 3 2 3 5 8 8 8 9 10 15 20 21 20 17 16 17 21 26 29 29 28 27 25 25 25 25 23 22 22 21 21 20 18 17 17 16 16 15 14 14 14 15 15 15 15 14 12 11 9 7 6 5 4 4 5 4 4 4 4 4 4 6 5 2 1 1 1 2
2 0 2 3 2 3 2 3 4 3 4 4 1 3 5 4 4 4 1 3 2 1 2 4 5 3 4 5 3 4 2 5 7 9 9 8 9 9 14 19 20 20 18 15 16 19 23 27 29 29 28 26 25 25 24 23 22 22 21 21 20 19 18 17 17 16 16 15 15 15 15 15 14 15 14 12 11 10 7 6 6 5 7 7 5 5 5 5 4 4 6 5 1 0 2 2 3
3 1 2 2 2 3 4 3 4 3 4 3 2 2 4 4 4 3 1 4 3 1 3 4 4 1 3 3 4 3 1 7 9 10 10 9 9 9 12 16 18 19 18 17 17 18 20 23 28 29 28 27 26 25 24 23 22 21 21 22 21 20 19 17 16 16 16 16 16 15 15 16 14 15 14 12 11 10 8 7 7 8 10 9 6 6 6 5 5 5 6 4 0 1 2 2 3
3 3 2 3 3 1 3 3 5 5 5 3 2 3 2 4 3 2 2 3 4 1 2 0 1 3 1 2 5 2 5 9 9 10 10 10 9 10 12 14 17 18 18 19 18 18 19 21 24 27 28 28 27 26 25 24 23 22 21 21 21 20 19 18 17 17 17 16 16 16 16 16 15 15 14 12 11 10 9 8 8 8 8 7 7 7 6 6 5 5 5 3 1 2 3 3 3
2 4 3 3 0 2 3 3 7 6 6 3 2 5 1 5 4 1 2 3 4 4 2 2 0 2 1 3 4 1 8 9 9 10 10 11 9 10 12 14 17 17 17 19 20 19 19 20 23 26 27 28 28 27 26 25 24 23 21 21 21 20 19 19 18 18 18 17 17 17 17 17 15 15 14 13 11 10 9 8 8 8 6 7 8 8 7 6 5 5 5 2 2 2 3 3 3
2 1 4 1 3 1 3 3 5 5 5 2 2 5 1 4 1 3 2 3 5 5 3 5 1 2 1 4 3 2 5 8 9 10 10 10 10 10 12 14 16 18 18 20 21 20 19 21 24 25 26 28 28 27 27 26 25 24 23 22 21 20 19 19 19 19 19 19 18 18 18 18 17 16 15 13 12 12 11 10 8 8 8 9 9 8 7 7 6 6 5 2 2 2 3 3 4
0 1 4 0 2 1 3 2 3 2 3 4 2 3 1 1 3 3 3 4 6 2 3 6 3 2 3 3 4 4 5 10 10 10 9 10 11 11 11 14 16 18 19 20 22 21 20 21 24 26 26 28 29 28 27 27 26 25 24 23 22 22 20 20 20 20 19 19 19 19 19 18 18 18 16 15 14 13 12 10 9 8 9 11 9 9 8 8 8 7 5 2 2 3 3 4 5
1 0 4 1 3 3 2 3 3 2 3 5 3 2 1 2 3 2 1 2 6 5 1 3 2 1 4 2 3 6 8 14 13 11 11 10 11 12 11 12 16 18 20 21 21 21 21 21 24 26 27 28 29 30 29 28 27 27 26 25 24 23 22 21 20 20 20 19 19 20 20 19 19 18 16 16 16 14 13 11 10 9 11 12 10 9 9 9 9 8 5 3 3 3 4 5 5
2 3 4 1 2 2 2 3 0 2 3 5 3 1 2 4 0 1 3 3 4 4 1 3 2 3 5 4 9 10 8 14 15 13 13 11 10 13 13 11 14 18 19 21 22 22 22 22 24 26 28 29 29 31 31 30 29 28 27 26 26 24 23 22 21 21 20 20 20 20 21 20 19 17 17 17 16 15 13 12 11 11 12 13 11 10 10 10 10 8 6 4 4 4 4 5 6
3 4 4 1 2 1 3 2 2 1 4 5 4 0 3 5 3 0 2 1 3 6 4 5 4 4 6 10 17 13 8 14 16 14 13 12 11 12 13 12 13 17 20 21 23 23 22 23 24 26 28 30 30 30 32 32 31 29 29 28 26 25 24 23 23 22 22 22 21 22 22 21 20 19 18 17 16 15 15 14 13 12 12 13 12 11 11 11 10 9 7 6 5 5 5 6 6
4 3 3 1 3 3 5 3 2 1 3 5 4 1 4 2 4 2 3 3 4 6 6 6 6 7 12 20 19 10 10 15 16 15 14 13 12 13 15 15 15 18 20 22 25 25 24 24 24 26 28 29 30 31 32 33 33 31 30 29 28 27 25 24 24 23 24 24 24 24 24 23 22 21 19 18 18 17 16 16 15 14 13 14 13 13 13 11 10 10 8 7 6 6 7 8 8
3 3 2 3 5 5 4 3 5 3 3 5 4 3 3 2 3 2 3 7 6 7 8 6 6 9 13 19 12 7 14 16 17 17 15 15 15 15 16 17 18 19 21 23 25 27 28 27 26 26 27 28 29 31 33 34 35 34 31 31 29 28 27 26 25 25 25 26 26 26 25 24 23 22 21 20 19 18 18 17 17 15 14 14 14 14 14 13 12 11 9 9 7 8 9 9 9
2 3 2 6 6 5 6 6 6 5 3 3 4 4 4 5 3 1 3 8 8 7 9 7 8 9 10 12 6 9 15 15 17 17 16 17 18 18 17 18 21 22 22 23 24 26 29 30 30 29 28 28 28 30 32 34 36 36 33 32 31 30 29 28 27 27 28 28 28 28 27 25 24 23 22 21 20 20 20 19 18 17 16 15 16 16 16 16 14 12 12 10 9 9 10 10 10
2 4 5 7 4 4 8 7 7 6 4 3 4 6 7 5 1 2 4 7 8 8 10 10 12 11 9 10 6 8 12 12 15 16 16 16 18 19 19 20 21 21 21 22 23 25 28 30 31 32 30 29 28 29 31 34 36 36 35 33 32 32 31 31 30 29 30 30 30 29 28 26 25 24 23 22 22 22 21 21 20 19 18 17 18 18 19 18 15 14 14 11 10 11 10 10 10
2 4 7 7 4 4 7 6 7 6 5 5 5 6 6 3 2 2 3 6 9 10 10 10 11 11 10 10 10 6 9 11 13 15 17 18 19 21 22 22 21 21 21 23 25 25 26 27 29 31 32 30 29 30 31 32 35 36 36 35 34 33 33 32 32 32 32 32 31 30 29 28 27 25 25 24 24 24 23 23 22 21 21 20 21 21 21 21 18 16 15 11 11 11 11 11 11
3 5 5 7 7 6 5 5 6 7 6 6 5 5 4 5 6 4 5 10 13 13 13 11 11 12 13 11 10 8 8 9 11 15 19 20 21 23 23 23 22 23 22 24 25 25 25 26 27 29 32 32 31 30 31 32 34 36 35 35 34 35 35 34 34 34 34 33 32 32 31 30 28 27 26 26 26 25 25 24 24 23 22 22 23 23 23 22 20 18 16 13 12 12 12 12 12
5 5 5 7 7 6 5 5 6 6 6 8 5 5 5 7 7 2 6 13 14 15 15 13 12 13 13 10 8 10 10 10 11 18 22 23 25 26 25 23 23 23 23 24 25 26 26 25 26 27 29 32 33 32 32 33 33 34 34 34 34 34 35 35 35 35 35 34 33 33 32 31 30 29 28 28 28 27 27 26 25 24 23 23 25 25 24 23 22 20 17 15 14 14 14 13 12
4 4 4 3 4 5 6 6 7 9 8 7 6 9 10 9 5 4 11 17 16 15 13 12 13 12 10 9 11 10 10 11 12 16 19 22 26 26 24 23 22 22 24 25 25 26 26 25 25 26 26 30 34 33 33 34 34 34 34 34 34 34 34 35 35 35 35 35 34 34 33 32 32 31 30 29 29 28 28 27 26 25 24 24 25 26 25 25 23 21 19 17 16 16 16 15 13
4 2 3 4 5 6 6 7 9 10 8 6 6 13 13 6 3 6 12 16 16 12 9 11 11 11 10 10 11 10 9 10 10 13 17 20 23 23 24 23 21 22 24 24 25 26 26 26 26 26 25 27 33 35 34 34 34 34 34 34 34 34 34 34 34 34 35 35 35 34 33 33 32 32 30 29 29 30 29 28 26 25 25 25 26 27 27 26 24 22 21 19 18 19 18 17 14
2 4 5 5 6 7 6 8 14 12 9 7 7 14 13 3 1 6 10 13 12 9 9 10 8 10 11 9 9 8 7 9 11 12 13 14 16 20 23 23 23 23 24 23 24 25 25 26 26 25 25 26 30 35 35 35 35 35 34 33 33 33 33 33 33 33 34 34 34 33 33 32 32 31 31 30 30 30 29 28 27 25 25 25 26 28 27 26 25 23 22 20 20 20 19 18 15
2 4 7 8 7 9 8 10 14 9 5 8 9 11 12 1 3 9 13 13 10 9 12 12 8 9 9 9 8 6 5 9 12 10 10 13 15 20 23 22 23 24 23 22 22 23 24 26 25 25 25 26 28 33 36 36 36 35 34 32 31 31 31 31 32 32 32 32 32 31 31 31 31 32 31 30 30 30 29 28 27 26 26 26 26 27 27 26 24 23 22 20 20 20 20 18 17
4 3 6 9 7 8 13 11 11 7 3 5 8 4 9 3 8 13 14 12 10 9 11 11 9 7 6 7 7 6 7 11 12 9 9 10 10 12 17 19 21 23 22 20 19 19 21 24 25 24 24 26 27 30 33 35 35 35 34 34 32 30 29 30 30 30 31 31 30 30 30 30 31 32 31 30 30 30 29 28 27 27 27 26 25 26 26 25 24 24 23 21 20 20 21 20 18
5 3 1 6 6 6 12 8 6 5 4 6 9 2 7 8 12 13 13 10 7 9 10 10 9 7 5 6 6 7 8 9 8 11 15 17 18 14 8 7 10 14 15 13 13 15 17 20 22 23 23 25 25 27 30 32 33 32 32 32 32 32 30 30 30 29 29 29 29 30 29 29 31 32 32 31 30 30 29 29 28 28 27 26 25 26 26 25 25 25 24 23 22 22 22 21 21
4 3 1 3 2 6 10 6 3 3 3 5 9 4 6 9 11 11 11 9 6 9 12 12 10 7 5 6 7 7 6 9 14 20 24 26 28 28 26 22 14 7 5 5 6 8 12 15 18 20 21 23 24 25 27 28 30 31 29 29 29 31 31 31 30 29 29 28 27 28 29 30 30 32 32 31 30 30 30 30 29 28 27 27 26 27 27 27 27 27 27 25 24 23 23 22 22
2 2 3 2 3 5 10 9 5 4 3 2 5 3 6 8 11 11 10 8 8 10 12 13 12 8 5 6 7 4 7 13 20 24 25 27 29 30 30 29 26 22 15 7 4 3 6 9 12 15 17 19 21 22 24 25 26 27 27 26 25 25 28 30 30 29 28 28 27 25 26 28 30 31 31 31 30 29 30 30 29 28 28 28 28 28 28 29 29 29 28 27 27 25 24 23 23
2 2 4 4 4 3 5 7 4 4 3 2 2 2 3 5 9 12 10 9 9 11 12 11 12 8 5 6 4 7 8 11 17 22 25 27 29 30 31 30 28 27 24 18 10 5 1 3 5 8 10 12 16 18 21 22 21 22 23 22 21 21 22 25 27 27 27 27 27 26 24 24 26 28 29 30 29 29 30 30 29 28 29 30 30 30 30 30 30 30 29 28 28 27 26 25 24
3 2 3 4 5 3 3 6 5 4 4 2 4 3 5 7 8 11 13 12 11 13 10 9 12 8 5 5 7 9 9 11 11 16 24 27 29 31 31 30 29 28 27 25 20 14 8 4 1 3 3 5 7 10 14 16 15 14 16 17 18 17 17 18 20 22 23 23 25 27 25 23 23 25 27 28 27 28 29 29 29 28 30 31 32 32 32 31 31 30 30 29 29 29 29 28 28
4 4 4 4 5 4 4 5 3 2 0 3 4 6 8 9 10 11 15 15 11 13 9 8 13 8 7 7 10 9 10 12 10 16 24 27 30 31 31 31 31 31 29 28 25 21 16 10 7 5 4 2 1 2 6 10 9 7 8 11 12 12 12 13 14 16 16 18 21 24 25 24 23 23 25 26 27 27 27 28 28 29 31 32 33 34 33 33 32 32 31 31 31 31 30 30 29
7 7 5 5 5 5 6 6 5 3 4 5 6 8 6 8 10 10 15 15 8 9 10 10 10 6 9 9 9 9 11 11 11 20 26 29 30 30 31 32 32 32 31 30 29 27 23 16 12 12 11 7 4 2 1 4 6 5 4 5 7 8 8 10 11 12 12 13 15 18 21 22 22 22 23 25 26 27 27 28 30 31 32 33 35 36 35 35 35 34 34 33 32 31 30 29 27
7 7 6 6 5 5 5 6 6 4 3 6 7 5 6 7 9 11 16 13 7 9 11 9 5 7 9 9 10 10 11 9 13 23 28 30 31 31 32 32 33 33 33 32 31 30 28 23 18 15 13 10 7 5 3 2 1 2 2 3 3 4 6 7 8 10 11 11 12 14 16 18 19 20 21 23 24 26 28 30 31 32 33 34 36 37 37 37 36 36 35 33 33 32 31 29 28
6 6 5 5 4 5 5 5 7 4 2 5 4 5 7 9 10 15 16 11 10 12 9 3 7 9 8 10 10 9 9 8 14 21 25 28 29 30 31 32 33 32 32 31 30 30 29 27 24 21 17 16 14 11 7 5 3 1 1 1 2 3 4 6 7 8 10 11 12 13 14 15 17 18 19 21 23 25 28 31 32 33 33 34 35 36 37 36 36 36 34 33 32 33 33 32 31
6 5 4 5 4 4 5 5 6 4 2 5 5 5 7 10 13 17 14 10 10 8 4 5 9 9 8 9 8 9 9 10 13 14 18 24 26 28 29 30 30 30 31 31 30 29 28 27 26 24 22 20 20 17 14 11 8 6 6 5 3 1 1 3 4 6 8 10 12 13 13 14 15 17 18 19 22 24 27 30 32 32 33 33 34 34 35 36 36 36 36 35 32 32 32 31 34
4 5 4 6 4 2 4 5 5 4 2 3 4 5 5 8 12 13 11 7 3 7 12 11 11 11 10 9 8 9 10 11 12 11 13 18 22 25 26 26 26 28 31 31 30 29 28 27 25 24 23 21 20 19 17 14 11 10 9 8 6 5 4 2 2 3 5 7 9 11 13 14 15 16 17 18 20 22 25 27 30 31 32 33 33 34 35 36 36 36 36 37 34 30 29 29 35
4 5 5 5 4 4 5 4 4 5 4 2 3 5 4 6 8 8 7 4 8 9 13 13 11 10 10 10 10 10 10 10 10 10 9 13 19 22 24 24 26 29 30 30 30 28 27 26 25 24 22 21 19 18 16 14 13 12 10 10 9 8 8 7 7 7 7 7 8 9 11 12 14 15 17 18 19 20 22 24 27 30 31 32 32 33 34 35 36 37 37 37 36 33 31 30 33
4 4 7 7 5 5 3 3 4 4 4 3 4 5 5 5 4 9 6 7 8 5 10 12 8 8 9 10 10 9 10 9 9 9 9 12 16 20 23 26 27 29 29 29 29 29 28 28 27 25 23 22 20 17 15 14 14 14 14 14 15 14 13 13 13 12 12 10 9 8 8 9 11 13 14 16 18 19 21 22 24 27 30 31 31 31 33 34 35 36 37 37 38 37 34 29 29
3 4 4 6 5 2 0 3 4 1 3 3 3 1 6 4 4 13 7 7 7 5 9 9 7 8 8 8 8 8 9 8 8 8 9 12 15 18 22 24 26 26 26 27 29 30 30 29 28 27 25 24 21 18 16 14 15 15 15 16 16 15 15 14 13 12 12 12 10 8 7 6 7 9 11 13 15 17 19 21 22 24 27 29 30 30 30 32 34 35 36 37 38 38 36 30 29
4 5 4 6 4 2 1 2 1 3 2 5 2 3 5 4 6 13 3 9 6 6 8 7 7 8 8 8 7 8 8 6 7 7 8 11 15 18 20 22 24 24 25 27 29 30 30 30 29 28 27 25 23 20 18 17 17 16 15 15 14 15 14 13 12 10 10 10 10 10 9 7 7 9 10 11 12 14 16 18 20 22 24 26 28 29 29 30 32 33 34 36 37 37 38 35 31
5 5 4 4 3 3 2 3 1 2 2 5 5 4 3 4 7 6 4 9 4 5 6 6 7 7 8 8 7 7 7 6 6 7 8 11 15 18 19 21 23 24 25 27 28 29 29 30 29 29 28 26 24 22 20 19 18 17 17 16 15 15 13 12 10 10 10 9 9 10 10 9 8 10 10 10 11 12 13 15 17 19 22 24 26 28 29 28 29 31 33 34 35 37 38 37 34
4 3 3 4 2 2 2 4 2 2 2 4 7 4 2 5 6 3 5 6 5 5 5 5 6 6 6 6 6 6 5 6 6 6 9 13 17 18 19 21 23 24 25 25 26 28 28 28 29 29 28 27 26 25 23 22 20 20 20 19 18 16 14 13 12 11 12 11 10 11 11 10 9 9 10 11 12 12 13 13 14 16 18 20 23 25 27 28 28 29 31 33 35 36 37 38 37
3 5 5 6 5 4 4 2 3 3 2 6 8 7 5 3 5 2 1 4 8 8 5 4 5 6 6 5 5 5 4 5 5 6 9 14 18 18 20 21 23 24 25 26 27 27 28 27 27 28 27 27 27 28 27 25 24 24 23 21 20 18 16 16 15 15 15 14 13 13 12 11 10 10 10 10 11 12 14 14 15 15 16 17 20 22 24 26 27 29 29 30 33 34 35 37 38
5 5 4 4 5 4 5 4 4 2 4 7 7 6 7 4 5 3 3 1 7 9 8 9 7 6 5 4 5 4 4 4 5 6 8 12 15 18 21 22 23 25 26 27 27 27 28 27 27 28 28 27 27 27 27 27 26 26 24 23 21 18 17 17 17 17 17 16 16 15 13 12 11 11 11 11 11 11 12 13 15 16 17 17 17 19 20 22 25 28 29 30 30 32 33 34 35
5 4 5 3 3 3 2 3 1 2 5 6 4 1 3 6 6 3 2 4 5 6 6 9 9 7 6 5 5 4 4 4 6 6 7 8 11 15 19 20 22 24 25 26 26 25 25 25 25 25 26 25 25 25 25 26 27 27 25 24 22 20 18 17 17 17 16 16 16 15 14 14 13 13 13 13 13 13 13 12 13 14 16 17 17 17 18 19 21 24 27 29 30 31 32 33 34
4 4 4 4 2 0 2 3 2 3 5 6 4 1 1 5 4 0 3 4 6 9 8 7 8 8 6 5 4 4 5 5 6 6 6 7 9 13 16 18 20 22 23 23 23 23 23 23 23 22 22 23 23 23 24 24 26 26 25 24 23 22 21 20 19 18 17 16 15 14 13 13 13 13 13 13 14 14 13 13 13 13 14 15 16 17 18 19 21 23 25 28 29 30 31 32 34
4 5 5 5 4 3 4 4 3 3 4 5 4 3 2 3 2 3 4 5 7 9 8 7 7 6 5 5 4 4 5 5 5 5 6 7 10 13 15 16 18 19 20 20 20 20 20 20 20 20 20 20 21 22 23 24 24 24 24 23 23 22 22 22 21 20 19 18 16 15 14 14 13 13 12 12 13 13 14 14 13 12 12 14 15 16 18 19 21 23 24 26 27 28 30 31 33
2 3 4 2 4 4 2 3 4 3 3 4 3 2 3 2 2 4 5 6 8 7 6 7 6 5 4 4 4 5 5 4 4 5 5 6 10 12 13 14 14 15 16 17 17 17 17 17 17 17 18 18 18 19 20 21 21 22 22 22 21 21 21 21 21 21 20 19 19 19 19 19 18 17 16 14 13 13 14 14 13 12 12 13 15 16 18 20 21 22 24 26 27 27 28 30 31
0 2 2 4 4 4 1 3 2 1 3 4 2 2 1 2 2 3 5 6 7 6 5 6 5 5 5 4 4 3 3 3 3 3 3 4 8 10 11 11 11 12 13 13 14 14 14 15 15 15 15 15 15 15 16 17 18 19 19 19 19 18 19 19 19 19 19 18 19 20 21 22 23 23 21 19 18 16 14 14 13 13 12 13 14 15 17 19 20 22 23 25 26 26 28 29 30
3 2 4 3 1 2 2 1 2 2 5 4 3 5 4 3 2 1 3 5 5 4 4 5 4 4 4 3 3 3 3 3 3 3 4 5 7 8 8 9 9 9 9 10 12 12 12 12 13 13 12 12 11 11 11 11 13 14 14 14 15 15 15 16 16 17 17 17 19 20 21 22 23 22 22 21 21 20 20 18 16 15 14 14 14 14 16 16 18 20 22 23 24 25 27 29 30
4 3 2 1 1 1 0 1 1 4 5 4 4 7 5 4 4 4 6 7 7 6 5 5 4 4 4 4 4 4 4 4 4 4 4 5 7 6 6 7 7 7 7 8 9 9 11 11 11 12 11 11 10 9 9 9 9 10 10 10 10 11 12 12 13 14 15 17 18 19 20 20 20 20 20 20 21 21 22 21 21 20 18 16 15 15 15 16 17 18 20 22 23 24 27 28 29
3 2 3 2 2 3 2 1 2 3 5 5 5 6 4 2 3 6 9 9 9 8 6 5 6 6 5 5 5 5 5 5 4 4 3 4 7 6 6 6 6 7 7 7 7 7 8 9 9 10 10 10 9 9 9 9 9 9 10 10 10 11 11 12 13 15 17 18 19 19 19 19 18 18 18 18 19 20 20 21 21 21 20 20 19 18 16 16 17 17 18 20 21 23 26 28 28
2 2 1 1 1 1 1 1 2 3 3 4 5 6 3 2 3 4 9 10 9 8 7 6 6 6 6 6 6 5 5 5 4 4 3 5 6 5 4 5 5 6 6 6 6 6 6 6 7 7 7 7 8 8 7 7 7 8 8 10 11 11 12 13 14 16 17 18 18 18 18 18 18 18 18 18 18 19 19 19 19 19 20 20 20 20 19 18 18 18 18 19 20 22 24 27 28
4 2 3 3 2 1 2 4 2 3 3 3 4 6 3 2 3 2 8 8 7 8 8 6 6 7 7 6 5 5 4 4 4 4 5 6 6 5 4 3 3 3 4 3 4 4 4 4 4 5 5 5 6 6 6 5 5 5 5 6 8 9 10 11 12 14 15 15 16 16 16 17 18 18 19 20 20 20 20 19 19 19 19 19 19 19 19 20 20 20 20 19 20 21 23 25 26
Wind_Direction
339 332 345 4 344 332 327 51 68 321 75 357 284 161 265 274 98 65 50 28 36 307 242 234 252 125 192 185 190 201 203 193 190 147 206 226 154 164 166 170 190 188 183 182 184 184 181 180 179 176 175 174 172 173 175 176 174 176 178 173 163 159 159 160 161 158 157 155 154 157 159 158 153 149 142 139 138 135 135 129 121 119 115 113 110 107 124 119 113 135 245 280 291 308 311 313 312
343 340 356 351 330 335 309 84 78 331 49 1 299 147 258 350 45 92 109 115 168 228 216 217 265 19 285 220 177 203 251 219 179 144 202 153 143 167 167 177 189 187 188 183 184 185 182 183 182 179 178 176 174 175 177 178 176 177 179 173 164 163 165 166 165 161 160 158 161 167 167 162 153 145 138 130 126 124 122 119 117 117 114 113 114 117 119 116 131 251 289 283 285 291 292 295 289
356 355 6 360 338 31 349 41 86 77 56 11 295 280 353 46 60 131 143 154 188 200 192 209 24 15 32 15 121 135 259 264 123 95 90 147 154 178 173 177 187 192 191 185 186 186 184 184 184 182 180 179 176 178 180 179 180 180 179 175 169 169 170 170 168 165 164 162 168 175 174 165 149 141 140 135 131 135 134 131 135 131 125 125 130 142 134 167 232 285 299 295 292 291 287 281 267
11 7 355 7 22 25 41 43 132 117 45 254 267 296 18 92 112 135 171 185 185 158 117 117 24 247 115 356 250 168 248 300 137 138 144 178 184 187 174 170 183 194 192 188 188 188 186 186 186 184 183 181 178 180 181 180 184 182 179 177 173 172 173 175 173 171 168 168 176 180 178 165 150 148 150 153 152 160 163 156 159 146 128 134 132 141 165 222 239 282 298 299 297 295 290 281 264
10 5 340 10 66 19 71 61 76 91 257 213 136 286 210 119 104 98 249 202 180 144 131 118 0 286 103 241 222 167 237 298 151 142 148 183 175 168 171 169 180 193 193 188 189 190 189 187 187 186 185 182 180 182 182 184 185 183 180 178 177 176 177 180 179 175 170 174 184 185 182 166 156 157 154 166 173 169 173 161 166 157 134 141 137 153 194 210 215 267 293 296 296 296 290 286 280
1 358 340 39 116 138 84 41 317 286 243 182 145 262 170 112 113 61 346 27 159 143 127 111 158 318 330 260 202 183 214 143 143 139 151 170 154 153 168 171 177 191 194 188 190 193 191 189 189 188 187 184 183 184 185 187 187 185 182 180 180 181 182 183 183 179 175 178 190 191 184 170 163 163 160 177 183 166 169 156 161 164 153 162 164 191 206 207 203 245 285 293 296 298 291 289 288
348 351 359 48 350 66 84 203 244 252 249 183 162 210 113 104 116 65 353 21 27 3 71 130 123 71 274 278 290 261 103 149 165 149 152 157 147 148 165 171 176 189 195 190 191 195 195 192 191 190 189 186 186 187 188 190 188 187 186 183 184 185 186 187 185 182 179 181 195 196 183 174 169 168 168 182 191 176 166 160 172 180 178 193 187 197 200 204 202 231 277 292 304 312 302 307 83
332 336 51 79 14 15 76 268 253 211 250 231 163 133 102 108 105 77 336 329 317 302 22 279 94 78 276 331 315 275 44 118 147 149 149 149 150 144 165 173 175 187 195 193 192 196 198 195 194 193 192 189 189 190 191 192 191 190 190 187 186 190 191 190 187 185 184 184 196 199 184 178 175 177 181 188 205 201 185 181 184 190 202 203 192 195 195 197 197 222 271 290 303 336 111 106 108
352 114 33 70 48 357 352 301 289 240 275 305 88 90 96 97 90 94 318 318 303 165 192 204 119 113 280 343 281 272 44 131 138 146 150 152 156 147 167 176 177 184 192 196 195 197 198 199 198 195 194 192 191 193 194 195 194 193 193 191 190 193 196 194 190 188 189 189 197 201 189 182 178 182 191 195 206 214 214 208 189 197 221 225 209 190 193 193 192 222 268 287 300 113 123 115 115
16 81 60 71 62 358 326 300 286 271 290 319 42 61 90 88 70 74 97 289 297 113 225 203 117 177 267 316 269 284 190 169 154 152 159 162 161 157 168 178 182 184 188 192 199 201 200 202 201 199 198 195 194 195 197 198 198 197 195 195 195 196 198 196 193 192 192 194 199 202 192 185 182 184 196 203 206 214 219 219 210 220 234 240 223 193 193 195 196 228 266 283 2 121 122 119 121
24 347 85 74 34 345 285 288 291 287 296 319 7 349 73 102 75 25 20 318 315 24 247 147 81 232 241 277 264 274 175 180 183 173 168 168 163 164 168 173 181 187 190 191 199 203 202 203 202 203 202 200 198 196 199 200 200 200 198 199 200 201 201 199 196 195 194 198 202 202 195 189 188 190 203 210 211 216 218 226 236 243 239 227 209 191 194 200 201 222 257 271 123 121 123 128 130
62 330 64 77 329 222 248 289 294 299 326 354 358 307 295 93 78 336 18 349 329 357 254 198 215 202 86 276 267 218 170 186 208 189 174 174 166 163 170 172 177 189 194 194 198 201 203 203 202 204 206 205 201 199 200 201 203 203 202 203 204 205 204 201 199 199 198 201 204 203 199 194 191 196 207 211 215 222 225 235 247 251 225 199 198 193 197 204 203 211 238 251 137 135 131 138 141
84 315 74 80 217 228 286 291 292 316 344 330 208 275 313 71 91 217 88 344 329 4 277 219 153 73 222 266 291 276 191 196 201 185 179 177 169 164 173 177 180 187 194 198 200 202 204 203 201 202 205 207 204 202 202 203 204 205 205 205 207 208 207 205 203 204 203 203 206 204 200 197 196 202 210 215 224 230 235 244 251 249 216 196 198 195 197 200 201 203 214 221 159 150 146 150 151
122 173 95 269 287 340 275 279 295 335 309 262 227 273 336 56 214 169 97 335 301 243 232 226 164 60 267 276 313 287 222 200 189 182 181 174 173 173 179 183 185 186 191 200 202 204 205 202 202 201 203 206 206 205 205 206 206 207 208 207 209 210 210 209 206 208 208 207 208 206 201 200 204 209 213 219 229 235 238 246 252 249 224 204 197 194 197 195 194 195 200 218 185 165 160 159 159
153 107 95 91 330 337 250 232 238 153 255 251 218 215 24 278 185 108 172 225 269 229 226 271 150 137 243 220 257 252 216 202 193 186 182 175 174 177 185 187 188 188 190 200 206 206 205 203 202 202 202 204 207 208 207 208 208 209 210 209 209 210 212 212 211 212 212 210 209 208 205 202 208 213 217 224 231 236 238 246 254 254 233 212 199 194 196 195 194 194 203 223 198 181 174 167 165
117 94 71 47 300 324 251 225 129 68 269 250 244 180 62 309 166 104 239 170 270 274 289 266 191 212 237 225 243 245 216 199 193 188 183 180 177 178 188 192 193 193 193 199 207 210 208 205 203 203 205 205 208 210 210 210 209 210 211 212 211 210 211 212 213 214 215 213 209 210 210 206 210 214 220 228 232 235 237 245 255 258 240 218 202 193 194 195 196 197 206 221 206 193 183 174 171
67 77 69 337 233 226 234 232 14 354 260 274 289 323 88 313 331 349 273 93 269 278 270 247 234 231 234 250 258 255 212 191 187 185 183 183 181 180 189 195 196 199 199 201 205 210 210 208 206 206 207 208 209 211 213 212 211 211 212 214 214 213 212 213 214 214 215 213 211 211 212 211 211 215 222 229 232 234 238 245 253 257 244 221 202 191 194 194 194 197 204 218 208 191 185 178 175
60 82 116 223 218 214 211 219 297 273 280 298 287 355 83 316 319 338 322 331 278 276 275 256 264 264 252 260 270 262 203 189 185 185 185 185 184 186 194 199 201 205 206 206 207 208 210 210 210 209 209 210 211 212 214 214 212 211 213 215 215 215 214 214 213 214 214 213 213 212 213 214 215 218 224 229 232 235 240 246 251 254 245 226 206 193 195 192 194 197 201 216 204 188 189 180 178
106 135 159 225 212 227 244 269 314 326 295 302 312 355 42 286 294 354 289 286 290 288 280 264 265 273 269 272 279 236 202 192 192 192 190 191 193 196 201 204 207 213 214 214 214 211 211 212 212 213 213 211 211 214 215 214 213 211 212 214 214 215 215 215 215 214 214 214 214 214 215 217 220 224 228 232 236 239 243 248 251 251 245 230 212 198 196 196 200 195 195 210 201 191 193 184 180
176 147 187 241 225 256 286 295 309 310 302 324 323 323 319 281 280 350 269 280 288 273 267 269 266 263 266 280 279 204 199 196 201 201 202 205 208 210 210 210 213 219 224 227 226 219 216 215 215 216 217 215 212 214 214 213 212 211 212 214 214 215 215 216 217 216 216 216 215 216 217 220 224 227 230 234 237 239 241 245 247 246 242 232 217 203 200 203 203 194 197 205 198 197 195 186 184
180 149 192 235 226 259 274 287 308 318 342 340 303 314 310 281 250 288 278 288 286 263 250 250 259 261 256 271 276 199 192 205 210 211 217 218 220 223 224 226 229 234 237 234 231 226 223 222 219 216 217 218 216 214 213 212 212 211 212 214 215 216 217 217 217 218 217 217 217 218 219 222 225 227 229 232 234 236 237 240 241 240 238 231 221 210 205 208 205 199 205 206 199 203 198 191 189
187 203 207 226 225 256 268 288 310 310 320 314 307 306 293 289 310 265 254 266 266 266 259 245 247 255 252 264 279 239 198 209 216 220 224 225 228 229 231 234 238 242 238 231 230 231 228 226 226 221 216 216 218 217 214 212 212 213 213 214 216 217 218 217 218 218 218 218 218 219 219 221 224 226 229 232 234 235 235 237 237 237 236 231 223 215 210 213 212 210 215 211 205 211 205 197 194
211 258 229 229 234 243 263 289 305 307 299 285 283 278 280 318 303 241 224 249 253 264 268 261 254 256 260 265 273 264 239 223 218 223 225 226 231 232 234 234 236 237 234 232 233 232 229 228 228 225 218 215 217 218 216 214 213 215 215 216 217 217 218 218 218 219 218 219 220 220 220 221 223 225 229 232 234 236 236 235 236 235 236 231 223 218 215 216 219 220 222 218 211 216 216 207 200
205 263 250 241 244 248 278 302 310 308 275 258 277 311 299 287 288 267 249 259 260 265 269 270 265 263 267 267 260 259 258 248 233 234 234 231 234 240 242 240 241 238 234 236 235 230 228 228 226 225 222 216 215 216 216 215 215 216 216 217 217 218 218 218 219 219 219 220 221 222 222 223 224 224 228 233 235 236 236 234 234 234 235 230 222 219 217 217 221 223 224 221 213 216 220 216 210
231 254 256 270 281 280 303 309 299 294 277 271 297 298 275 256 274 301 269 271 271 266 270 275 274 273 268 262 259 255 257 259 252 246 242 238 240 245 246 246 246 237 232 237 236 230 229 229 224 223 223 218 214 214 215 215 215 215 216 217 218 219 219 219 220 220 220 221 223 224 224 225 224 225 228 232 235 235 234 233 233 234 235 230 222 219 219 219 221 224 224 220 216 216 218 218 216
258 280 301 317 301 292 306 301 285 281 275 274 283 278 271 255 275 280 260 262 270 274 278 272 276 280 269 259 257 252 253 258 258 254 250 247 242 238 240 244 242 237 237 237 234 233 232 228 224 225 224 220 215 213 214 215 214 214 216 218 219 219 220 221 222 221 222 222 224 225 227 227 226 227 230 233 234 233 232 231 232 234 235 232 225 221 221 222 223 224 224 220 218 217 218 217 214
289 350 321 295 292 297 295 290 281 277 274 255 241 263 272 253 216 271 259 254 269 292 291 274 268 269 267 262 258 254 249 255 266 267 264 258 242 232 236 239 238 241 241 234 233 235 232 228 226 228 226 222 216 213 214 215 215 215 216 218 218 219 221 222 223 223 224 224 225 227 228 229 229 230 231 234 233 231 230 230 232 234 234 233 228 224 223 225 226 227 226 223 220 219 220 219 214
335 344 326 305 313 310 285 277 275 273 274 234 204 250 278 304 195 250 261 266 283 295 289 285 273 261 268 269 270 277 274 277 280 271 259 258 247 233 231 234 237 242 240 235 237 235 230 229 228 229 228 223 219 216 216 216 217 217 217 217 218 219 221 222 223 224 225 226 227 227 228 230 229 229 231 233 231 229 229 230 233 234 235 233 230 226 224 227 229 229 229 227 224 221 221 221 218
323 328 324 304 330 310 278 268 262 254 249 200 158 255 288 255 229 244 258 272 292 296 285 285 281 275 279 282 292 302 290 286 286 284 282 292 290 255 241 243 243 242 243 243 242 235 231 232 231 230 228 225 222 221 219 218 218 218 218 219 219 219 219 221 223 224 226 228 228 227 227 229 229 229 229 230 229 228 230 231 233 235 236 234 231 228 225 227 228 227 228 227 225 220 219 221 218
317 333 266 290 345 305 272 263 257 257 240 169 141 228 279 251 247 250 260 275 297 302 291 289 291 293 298 304 307 297 296 306 329 8 25 31 32 27 10 319 271 257 258 256 251 246 240 234 232 231 227 226 226 225 223 221 221 220 220 221 221 221 220 221 223 226 227 227 228 227 227 229 229 229 228 227 227 228 230 231 233 235 236 234 232 229 226 226 226 224 224 224 223 220 220 220 217
301 321 216 276 314 278 280 282 281 286 274 156 148 204 264 261 267 263 268 281 291 298 295 292 293 301 321 312 291 296 341 27 39 39 41 42 41 42 43 43 41 18 329 303 285 266 249 238 232 230 227 227 227 226 226 226 225 224 223 223 223 224 225 225 226 227 227 226 227 227 228 230 229 228 227 226 227 228 229 230 233 234 235 233 231 229 227 226 225 224 223 222 220 219 220 219 218
283 289 306 284 207 263 296 295 278 234 280 56 135 205 264 267 275 274 277 284 287 290 285 289 295 308 328 298 294 343 36 47 45 39 37 41 42 43 46 47 50 50 47 38 2 305 255 241 233 231 228 227 228 228 229 228 228 227 227 227 226 228 228 228 228 228 228 228 228 228 229 229 227 226 227 227 228 229 230 232 234 234 233 232 230 229 227 226 225 224 224 223 220 217 217 216 217
302 199 245 256 229 269 300 302 303 149 126 6 197 225 272 268 273 277 279 280 288 285 281 295 299 305 328 311 349 50 55 45 38 33 33 39 43 45 47 48 50 52 53 55 50 38 326 243 230 231 228 227 229 229 229 228 229 230 230 230 231 232 231 230 230 230 230 231 231 232 231 229 227 227 227 229 230 231 232 234 235 234 231 230 230 228 228 228 227 224 222 222 222 219 216 213 214
302 248 229 245 240 243 281 302 325 82 109 240 256 242 246 266 283 289 287 283 285 281 288 307 293 305 357 14 56 65 56 49 36 30 32 37 41 43 46 48 51 53 54 56 57 58 59 58 117 216 219 221 226 226 225 224 224 229 232 234 236 237 237 233 231 232 233 233 233 234 234 234 232 230 230 231 232 233 234 235 235 233 231 230 229 228 228 229 228 227 223 220 220 221 218 215 214
245 253 254 268 255 247 272 281 288 10 4 251 278 266 256 272 279 282 282 278 280 286 299 300 292 327 41 65 74 69 60 57 39 34 37 40 41 40 43 46 48 51 52 56 58 61 64 66 70 63 43 27 288 221 213 214 214 219 225 230 235 238 239 238 237 237 236 235 234 234 236 237 237 235 234 234 234 234 234 235 235 234 233 231 229 228 227 226 225 226 225 221 219 220 223 221 216
226 244 251 261 267 267 266 264 265 301 310 281 271 269 273 276 273 277 276 275 279 288 292 288 298 17 77 85 79 72 65 60 43 43 42 42 42 41 42 45 47 49 50 53 56 57 59 64 70 60 43 32 24 40 146 199 212 213 210 216 227 235 241 244 246 247 246 244 240 238 239 240 240 240 238 237 236 237 238 239 238 236 234 232 230 228 226 226 226 226 226 223 219 218 221 222 218
237 253 261 259 265 273 269 271 279 309 322 267 258 285 300 288 286 280 276 288 303 280 278 292 345 71 96 90 84 77 70 63 50 47 44 44 44 43 44 45 47 48 47 49 52 53 56 61 64 59 52 49 46 45 62 86 206 227 231 229 230 237 243 246 249 250 251 252 251 248 247 246 246 244 242 241 242 244 245 243 240 238 235 233 232 232 230 230 229 229 227 223 221 218 216 218 216
249 251 262 271 259 257 266 270 279 316 349 263 290 337 308 293 289 278 280 301 297 278 282 318 77 90 92 87 82 75 72 61 52 46 42 42 43 44 45 45 46 45 44 46 47 50 56 60 60 59 61 63 62 61 65 68 62 45 356 333 289 269 262 260 260 260 259 259 260 259 258 257 256 253 250 248 248 249 247 244 241 240 238 236 235 234 233 232 230 229 226 222 221 220 220 217 209
262 273 285 282 265 273 294 289 295 353 22 269 306 325 293 284 278 276 282 287 284 300 12 82 100 91 76 78 78 74 70 56 52 47 41 42 43 46 46 45 47 46 45 46 47 49 52 55 58 60 63 64 64 64 66 66 66 68 64 59 47 347 313 284 276 271 269 267 266 267 267 266 265 262 260 256 254 251 249 247 245 243 242 240 237 234 233 232 230 228 226 223 220 219 223 220 210
262 265 276 273 268 276 289 296 318 340 288 257 299 306 289 277 276 281 282 282 330 51 73 78 83 83 76 74 68 66 68 60 57 50 42 43 44 45 46 45 47 48 47 46 46 47 48 51 56 59 61 61 61 61 64 67 68 67 61 58 60 59 54 25 332 299 283 276 273 273 274 273 273 272 270 265 261 258 255 254 252 249 247 244 241 237 234 232 232 229 228 226 221 215 218 219 214
263 228 225 246 259 238 234 277 326 329 316 350 5 333 300 263 274 284 292 31 61 73 81 74 71 81 82 75 67 61 61 60 59 55 46 46 46 45 45 45 47 47 46 45 46 47 48 52 57 60 62 61 62 62 66 70 69 65 58 52 50 44 37 29 17 4 344 318 301 294 289 285 284 283 281 277 273 269 265 262 260 257 253 249 245 241 238 237 236 233 231 228 223 218 217 219 216
288 240 214 215 224 229 240 320 10 16 335 334 35 5 292 271 278 272 283 57 63 54 75 78 72 74 75 73 71 66 63 58 54 52 47 50 53 49 45 44 45 46 46 47 49 49 50 52 56 60 62 61 63 66 69 73 72 65 59 53 47 38 32 26 19 14 9 358 339 320 302 294 291 289 289 286 283 280 276 271 267 264 260 255 250 247 244 242 239 238 235 231 227 225 223 221 218
278 248 190 167 167 170 333 13 32 60 260 285 46 56 268 293 283 266 272 84 86 63 70 78 73 69 71 71 71 70 69 68 64 54 46 48 51 51 48 45 44 45 46 50 53 53 52 53 55 57 59 59 60 63 68 72 71 67 62 58 51 43 34 25 18 15 14 13 10 358 332 309 302 301 300 298 294 290 285 280 274 270 266 262 257 253 250 247 245 243 241 237 233 231 227 224 223
242 236 144 123 132 163 200 82 80 223 250 313 309 197 258 296 256 260 246 100 97 79 74 70 71 72 72 72 73 75 72 70 74 69 58 51 47 48 49 47 48 49 50 52 53 54 53 53 55 57 58 57 56 56 59 61 62 62 60 59 53 45 36 26 18 15 13 15 23 22 5 341 324 317 313 309 305 300 295 289 284 278 273 269 264 260 257 255 252 249 246 242 238 235 230 229 229
239 221 134 113 139 173 171 109 135 263 14 318 276 195 246 274 260 277 95 116 133 108 92 74 72 69 71 71 63 69 74 66 65 68 66 60 54 51 51 48 48 50 52 54 57 58 58 57 58 59 59 58 57 57 58 58 59 60 58 54 50 44 36 29 23 19 18 17 23 28 22 7 341 321 314 314 313 309 304 299 294 288 282 278 273 268 265 262 258 253 250 247 242 239 236 234 234
228 160 87 46 57 81 75 107 121 6 37 260 251 190 201 271 281 317 91 131 168 129 96 75 74 65 67 71 59 52 58 63 60 60 62 60 57 56 56 54 50 48 49 51 55 57 59 59 58 59 58 59 60 61 62 62 63 64 60 54 48 42 37 34 31 27 24 21 20 22 22 22 12 346 324 315 311 311 309 305 300 296 292 288 282 277 273 269 266 262 257 253 249 246 242 239 238
122 79 48 16 4 27 44 83 92 50 307 249 238 204 192 271 290 261 159 183 169 144 129 120 95 79 72 66 66 53 40 51 53 55 58 58 57 54 52 51 49 49 50 49 49 51 53 55 56 56 55 56 57 59 61 62 63 64 62 58 53 47 41 37 33 28 23 20 18 16 12 14 16 11 359 342 327 318 311 307 303 299 296 293 289 285 281 278 275 271 266 261 255 251 248 245 243
94 75 65 29 339 8 28 5 44 86 253 260 251 209 186 225 268 256 294 244 150 140 146 145 122 103 94 70 66 58 43 49 47 46 48 47 48 45 43 42 41 45 47 47 47 48 49 50 52 53 51 51 53 55 57 59 61 62 61 60 57 52 46 40 35 30 25 21 19 16 14 11 8 6 4 1 355 342 327 314 306 301 297 295 294 293 290 287 284 279 274 269 262 258 255 251 248
79 83 81 67 338 359 9 322 355 203 246 256 249 152 171 230 250 237 7 36 85 96 115 131 123 115 105 80 68 53 41 48 50 48 42 39 39 37 38 38 37 39 41 43 45 46 48 47 49 50 46 46 48 50 53 54 56 58 59 59 57 55 51 46 41 36 30 26 20 17 17 16 13 7 358 354 351 346 340 331 319 308 301 298 296 296 296 295 292 287 282 276 271 267 263 259 255
131 136 129 133 138 28 268 264 266 261 269 263 251 349 285 261 280 40 83 71 86 91 95 109 114 115 111 100 89 62 48 44 45 46 41 39 40 40 40 38 38 39 40 42 42 42 44 43 43 44 43 43 44 45 46 48 50 52 54 55 54 53 51 48 45 39 34 28 21 17 15 13 12 8 358 349 343 337 333 331 327 318 310 303 297 296 299 300 297 292 288 283 279 275 272 267 263
180 161 142 147 155 178 221 234 233 249 275 279 282 296 233 218 324 29 76 82 85 91 98 99 97 103 109 107 96 73 59 46 41 46 43 43 46 47 48 45 43 43 43 42 41 41 42 40 38 38 37 38 39 40 41 42 45 47 49 50 49 49 48 47 46 43 41 37 31 28 25 23 20 12 359 345 337 331 328 327 325 324 322 313 303 299 300 301 300 296 291 287 284 281 278 273 270
227 133 113 170 189 180 207 238 209 203 278 282 265 255 213 150 53 43 69 73 75 81 90 96 96 99 98 90 78 69 66 60 54 53 48 52 58 58 55 51 48 47 46 44 42 42 42 40 39 37 35 34 36 36 36 37 40 43 44 44 44 45 45 45 44 44 43 42 39 38 37 37 35 30 21 7 353 341 331 326 321 320 322 317 309 305 304 303 301 297 294 290 287 285 282 278 276
314 102 183 225 194 147 135 288 260 188 259 257 215 249 275 86 61 64 75 75 82 85 91 104 109 99 93 92 93 92 93 90 81 86 90 77 71 66 60 56 51 47 46 45 45 45 46 46 45 42 39 39 38 36 34 35 38 41 42 42 41 41 41 41 40 39 38 37 35 33 32 33 33 32 29 24 18 11 359 347 333 320 315 312 308 307 307 307 305 301 297 293 291 289 286 283 281
121 178 224 239 0 76 103 286 301 267 255 258 248 256 251 216 228 158 123 119 115 119 116 111 103 96 110 141 154 159 156 152 160 160 152 124 96 78 65 58 53 51 51 50 48 47 51 55 54 51 50 48 47 45 42 39 40 42 43 42 41 40 41 40 38 37 35 33 33 31 28 27 26 24 22 20 18 17 15 11 3 350 336 322 313 309 308 309 309 306 302 298 295 293 289 286 284
122 189 223 94 86 295 299 140 219 250 256 273 264 255 244 210 202 179 175 168 153 154 148 139 148 157 172 189 197 196 181 179 184 177 169 139 114 92 76 68 61 62 62 63 61 55 58 63 63 61 59 59 59 57 57 56 51 49 47 47 44 43 44 42 38 37 37 36 34 32 30 28 24 21 18 14 12 11 11 11 10 6 0 351 338 326 317 313 311 309 307 304 301 297 292 289 287
33 35 10 45 147 186 212 187 171 224 253 272 267 258 254 233 214 192 184 173 160 161 162 171 183 185 191 195 196 197 192 195 191 177 170 127 107 91 82 79 73 74 75 75 79 74 66 64 64 64 61 59 58 55 55 54 51 48 48 47 44 41 42 40 36 33 32 32 30 28 27 25 22 20 18 15 13 10 7 5 4 3 2 0 356 349 338 326 317 312 309 308 306 302 296 292 290
53 41 357 356 91 133 243 232 144 161 231 258 260 257 253 283 287 195 168 159 152 155 162 179 190 189 195 197 193 193 192 192 180 161 148 123 112 102 96 93 84 82 83 80 80 77 70 59 54 53 48 46 48 47 48 48 45 41 37 35 32 28 28 27 26 26 24 24 23 21 20 17 15 14 13 12 11 9 6 3 0 358 357 356 355 354 350 341 330 320 313 310 309 306 300 296 293
143 157 204 190 160 151 270 266 190 155 210 222 249 263 245 257 304 98 127 137 146 156 167 183 201 200 200 200 189 180 174 173 164 150 148 145 138 135 129 120 105 86 74 69 66 59 55 48 38 31 29 30 31 34 35 34 35 28 19 12 9 11 14 12 14 15 15 15 13 12 10 7 6 5 5 4 3 3 1 359 357 355 353 352 350 350 349 346 341 333 323 314 308 306 303 300 296